Tracking 25612 objects as of 19-May-2022
HD Live streaming from Space Station
objects crossing your sky now

SL-14 DEB

Track SL-14 DEB now!
10-day predictions


NORAD ID: 45294
Int'l Code: 1991-056AG
Perigee: 1,196.3 km
Apogee: 1,202.0 km
Inclination: 82.6 °
Period: 109.2 minutes
Semi major axis: 7570 km
RCS: Unknown
Launch date: August 15, 1991
Source: Commonwealth of Independent States (former USSR) (CIS)
Launch site: PLESETSK MISSILE AND SPACE COMPLEX (PKMTR)

Note: This is SATELLITE DEBRIS
aabbcc
Your satellite tracking list
Your tracking list is empty




NASA's NSSDC Master Catalog

Two Line Element Set (TLE):
1 45294U 91056AG  22139.18470903  .00000941  00000-0  23760-2 0  9998
2 45294  82.5669 112.2941 0003723 316.3134  43.7694 13.18096737107228
Source of the keplerian elements: AFSPC